| time (UTC) | temp F | wind direction | speed MPH | gust MPH | rain 1hr in | rain 24hr in | rain mn in | humidity % | barometer mb |
| 20260902184516 | 85 | 138 | 5.0 | 13.0 | 0.00 | 0.00 | 0.00 | 29 | 1003.7 |
| 20260902183012 | 84 | 119 | 7.0 | 13.0 | 0.00 | 0.00 | 0.00 | 27 | 1004.1 |
| 20260902181509 | 84 | 130 | 4.0 | 14.0 | 0.00 | 0.00 | 0.00 | 31 | 1004.3 |
| 20260902180008 | 85 | 131 | 5.0 | 13.0 | 0.00 | 0.00 | 0.00 | 30 | 1004.8 |
| 20260902174505 | 85 | 114 | 5.0 | 12.0 | 0.00 | 0.00 | 0.00 | 29 | 1005.0 |
| 20260902173003 | 84 | 162 | 6.0 | 13.0 | 0.00 | 0.00 | 0.00 | 29 | 1005.2 |
| 20260902171602 | 83 | 178 | 5.0 | 13.0 | 0.00 | 0.00 | 0.00 | 31 | 1005.3 |
| 20260902170057 | 83 | 140 | 5.0 | 16.0 | 0.00 | 0.00 | 0.00 | 30 | 1005.5 |
| 20260902164554 | 82 | 139 | 8.0 | 13.0 | 0.00 | 0.00 | 0.00 | 31 | 1005.7 |
| 20260902163052 | 82 | 153 | 5.0 | 10.0 | 0.00 | 0.00 | 0.00 | 33 | 1005.7 |
| 20260902161554 | 81 | 123 | 5.0 | 10.0 | 0.00 | 0.00 | 0.00 | 36 | 1005.8 |
| 20260902160055 | 82 | 145 | 3.0 | 8.0 | 0.00 | 0.00 | 0.00 | 36 | 1005.9 |
| 20260902154550 | 80 | 163 | 3.0 | 8.0 | 0.00 | 0.00 | 0.00 | 36 | 1006.0 |
| 20260902153045 | 79 | 156 | 3.0 | 7.0 | 0.00 | 0.00 | 0.00 | 37 | 1006.0 |
| 20260902151540 | 78 | 114 | 1.0 | 5.0 | 0.00 | 0.00 | 0.00 | 38 | 1006.0 |
| 20260902150036 | 76 | 150 | 3.0 | 5.0 | 0.00 | 0.00 | 0.00 | 41 | 1006.1 |
| 20260902144532 | 73 | 150 | 2.0 | 6.0 | 0.00 | 0.00 | 0.00 | 45 | 1006.1 |
| 20260902143031 | 73 | 147 | 5.0 | 9.0 | 0.00 | 0.00 | 0.00 | 43 | 1006.2 |
| 20260902141535 | 73 | 44 | 2.0 | 4.0 | 0.00 | 0.00 | 0.00 | 44 | 1005.7 |
| 20260902140025 | 70 | 137 | 1.0 | 4.0 | 0.00 | 0.00 | 0.00 | 48 | 1005.9 |
| 20260902134524 | 66 | 248 | 1.0 | 3.0 | 0.00 | 0.00 | 0.00 | 52 | 1005.9 |
| 20260902133023 | 63 | 5 | 0.0 | 2.0 | 0.00 | 0.00 | 0.00 | 54 | 1005.8 |
| 20260902131525 | 60 | 314 | 0.0 | 5.0 | 0.00 | 0.00 | 0.00 | 56 | 1005.7 |
| 20260902130020 | 58 | 15 | 3.0 | 9.0 | 0.00 | 0.00 | 0.00 | 58 | 1005.7 |
| 20260902124518 | 58 | 163 | 4.0 | 6.0 | 0.00 | 0.00 | 0.00 | 62 | 1005.5 |
| 20260902123016 | 58 | 182 | 4.0 | 6.0 | 0.00 | 0.00 | 0.00 | 63 | 1005.4 |
| 20260902121513 | 60 | 173 | 3.0 | 7.0 | 0.00 | 0.00 | 0.00 | 60 | 1005.4 |
| 20260902120015 | 59 | 237 | 3.0 | 7.0 | 0.00 | 0.00 | 0.00 | 55 | 1005.3 |
| 20260902114520 | 58 | 292 | 4.0 | 7.0 | 0.00 | 0.00 | 0.00 | 60 | 1005.2 |
| 20260902113010 | 59 | 340 | 0.0 | 5.0 | 0.00 | 0.00 | 0.00 | 60 | 1005.2 |
| 20260902111504 | 59 | 275 | 2.0 | 4.0 | 0.00 | 0.00 | 0.00 | 59 | 1005.1 |
| 20260902110005 | 60 | 158 | 2.0 | 5.0 | 0.00 | 0.00 | 0.00 | 60 | 1005.1 |
| 20260902104504 | 59 | 321 | 2.0 | 4.0 | 0.00 | 0.00 | 0.00 | 60 | 1005.1 |
| 20260902103059 | 60 | 321 | 2.0 | 3.0 | 0.00 | 0.00 | 0.00 | 62 | 1005.0 |
| 20260902101612 | 59 | 321 | 0.0 | 4.0 | 0.00 | 0.00 | 0.00 | 61 | 1005.0 |
| 20260902100055 | 60 | 296 | 3.0 | 6.0 | 0.00 | 0.00 | 0.00 | 59 | 1005.1 |
| 20260902094553 | 61 | 26 | 1.0 | 5.0 | 0.00 | 0.00 | 0.00 | 57 | 1005.1 |
| 20260902093048 | 63 | 285 | 1.0 | 3.0 | 0.00 | 0.00 | 0.00 | 55 | 1005.0 |
| 20260902091550 | 64 | 78 | 1.0 | 3.0 | 0.00 | 0.00 | 0.00 | 54 | 1005.1 |
| 20260902090045 | 65 | 69 | 2.0 | 7.0 | 0.00 | 0.00 | 0.00 | 52 | 1005.0 |
| 20260902084551 | 64 | 41 | 2.0 | 8.0 | 0.00 | 0.00 | 0.00 | 53 | 1004.9 |
| 20260902083045 | 63 | 13 | 6.0 | 8.0 | 0.00 | 0.00 | 0.00 | 54 | 1004.8 |
| 20260902081548 | 63 | 309 | 5.0 | 6.0 | 0.00 | 0.00 | 0.00 | 55 | 1004.9 |
| 20260902080039 | 64 | 55 | 5.0 | 6.0 | 0.00 | 0.00 | 0.00 | 56 | 1005.0 |
| 20260902074537 | 64 | 298 | 4.0 | 6.0 | 0.00 | 0.00 | 0.00 | 52 | 1004.9 |
| 20260902073036 | 64 | 329 | 3.0 | 4.0 | 0.00 | 0.00 | 0.00 | 54 | 1004.9 |
| 20260902071533 | 64 | 338 | 3.0 | 4.0 | 0.00 | 0.00 | 0.00 | 55 | 1005.1 |
| 20260902070031 | 64 | 304 | 3.0 | 6.0 | 0.00 | 0.00 | 0.00 | 55 | 1005.2 |
| 20260902064528 | 66 | 342 | 4.0 | 6.0 | 0.00 | 0.00 | 0.00 | 52 | 1005.2 |
| 20260902063023 | 69 | 44 | 6.0 | 8.0 | 0.00 | 0.00 | 0.00 | 48 | 1005.1 |
| 20260902061522 | 71 | 284 | 6.0 | 10.0 | 0.00 | 0.00 | 0.00 | 41 | 1005.0 |
| 20260902060019 | 71 | 274 | 6.0 | 8.0 | 0.00 | 0.00 | 0.00 | 42 | 1005.0 |
| 20260902054517 | 71 | 262 | 5.0 | 7.0 | 0.00 | 0.00 | 0.00 | 42 | 1005.1 |
| 20260902053027 | 72 | 271 | 4.0 | 8.0 | 0.00 | 0.00 | 0.00 | 42 | 1005.1 |
| 20260902051515 | 71 | 273 | 5.0 | 8.0 | 0.00 | 0.00 | 0.00 | 42 | 1004.9 |
| 20260902050014 | 70 | 273 | 2.0 | 6.0 | 0.00 | 0.00 | 0.00 | 44 | 1005.0 |
| 20260902044514 | 69 | 57 | 2.0 | 4.0 | 0.00 | 0.00 | 0.00 | 46 | 1005.1 |
| 20260902043014 | 70 | 259 | 2.0 | 4.0 | 0.00 | 0.00 | 0.00 | 45 | 1005.2 |
| 20260902041513 | 69 | 229 | 3.0 | 5.0 | 0.00 | 0.00 | 0.00 | 47 | 1005.3 |
| 20260902040012 | 67 | 257 | 2.0 | 4.0 | 0.00 | 0.02 | 0.00 | 51 | 1005.3 |
| 20260902034512 | 68 | 145 | 2.0 | 3.0 | 0.00 | 0.02 | 0.00 | 51 | 1005.0 |
| 20260902033013 | 69 | 145 | 0.0 | 4.0 | 0.00 | 0.02 | 0.00 | 48 | 1004.8 |
| 20260902031511 | 70 | 193 | 3.0 | 5.0 | 0.00 | 0.02 | 0.00 | 50 | 1004.7 |
| 20260902030010 | 71 | 181 | 4.0 | 6.0 | 0.00 | 0.02 | 0.00 | 48 | 1004.7 |
| 20260902024509 | 71 | 199 | 1.0 | 5.0 | 0.00 | 0.02 | 0.00 | 46 | 1004.3 |
| 20260902023009 | 72 | 175 | 2.0 | 3.0 | 0.00 | 0.02 | 0.00 | 43 | 1003.9 |
| 20260902021512 | 73 | 97 | 0.0 | 2.0 | 0.00 | 0.02 | 0.00 | 40 | 1003.8 |
| 20260902020007 | 75 | 97 | 0.0 | 0.0 | 0.00 | 0.02 | 0.00 | 40 | 1003.5 |
| 20260902014518 | 77 | 97 | 0.0 | 2.0 | 0.00 | 0.02 | 0.00 | 39 | 1003.5 |
| 20260902013007 | 78 | 97 | 1.0 | 5.0 | 0.00 | 0.02 | 0.00 | 38 | 1003.4 |
| 20260902011505 | 79 | 41 | 6.0 | 11.0 | 0.00 | 0.02 | 0.00 | 35 | 1003.3 |
| 20260902010004 | 80 | 81 | 4.0 | 8.0 | 0.00 | 0.02 | 0.00 | 36 | 1003.2 |
| 20260902004506 | 82 | 115 | 2.0 | 7.0 | 0.00 | 0.02 | 0.00 | 35 | 1003.4 |
| 20260902003003 | 83 | 51 | 2.0 | 8.0 | 0.00 | 0.02 | 0.00 | 31 | 1003.4 |
| 20260902001502 | 83 | 54 | 3.0 | 8.0 | 0.00 | 0.02 | 0.00 | 30 | 1003.4 |
| 20260902000103 | 83 | 40 | 3.0 | 10.0 | 0.00 | 0.02 | 0.00 | 31 | 1003.5 |
| 20260901234615 | 84 | 355 | 5.0 | 11.0 | 0.00 | 0.02 | 0.00 | 30 | 1003.5 |
| 20260901233102 | 84 | 360 | 7.0 | 17.0 | 0.00 | 0.02 | 0.00 | 31 | 1003.4 |
| 20260901231558 | 84 | 5 | 13.0 | 21.0 | 0.00 | 0.02 | 0.00 | 31 | 1003.4 |
| 20260901230136 | 86 | 336 | 15.0 | 20.0 | 0.00 | 0.02 | 0.00 | 28 | 1003.5 |
| 20260901224555 | 86 | 342 | 7.0 | 14.0 | 0.00 | 0.02 | 0.00 | 27 | 1003.4 |
| 20260901223110 | 84 | 313 | 12.0 | 23.0 | 0.00 | 0.02 | 0.00 | 29 | 1003.5 |
| 20260901221552 | 85 | 320 | 11.0 | 28.0 | 0.00 | 0.02 | 0.00 | 27 | 1003.2 |
| 20260901220059 | 87 | 317 | 10.0 | 16.0 | 0.00 | 0.02 | 0.00 | 26 | 1003.3 |
| 20260901214549 | 88 | 294 | 11.0 | 16.0 | 0.00 | 0.02 | 0.00 | 26 | 1003.4 |
| 20260901213049 | 87 | 317 | 9.0 | 15.0 | 0.00 | 0.02 | 0.00 | 26 | 1003.7 |
| 20260901211552 | 87 | 275 | 11.0 | 18.0 | 0.00 | 0.02 | 0.00 | 27 | 1003.9 |
| 20260901210039 | 86 | 248 | 7.0 | 17.0 | 0.00 | 0.02 | 0.00 | 28 | 1004.3 |
| 20260901204543 | 82 | 307 | 5.0 | 12.0 | 0.00 | 0.02 | 0.00 | 31 | 1004.6 |
| 20260901203035 | 80 | 221 | 7.0 | 15.0 | 0.00 | 0.02 | 0.00 | 33 | 1004.9 |
| 20260901201533 | 82 | 303 | 14.0 | 23.0 | 0.00 | 0.02 | 0.00 | 30 | 1005.1 |
| 20260901200135 | 84 | 140 | 2.0 | 6.0 | 0.00 | 0.02 | 0.00 | 34 | 1004.8 |
| 20260901194526 | 84 | 132 | 4.0 | 10.0 | 0.00 | 0.02 | 0.00 | 38 | 1004.6 |
| 20260901193025 | 82 | 139 | 5.0 | 10.0 | 0.00 | 0.02 | 0.00 | 37 | 1004.6 |
| 20260901191526 | 82 | 154 | 5.0 | 14.0 | 0.00 | 0.02 | 0.00 | 38 | 1004.8 |
| 20260901190104 | 82 | 134 | 7.0 | 11.0 | 0.00 | 0.02 | 0.00 | 38 | 1005.1 |